Regional Weather Roundup
Issued by NWS

Home | Current Version | Previous Version | Text Only | Print | Product List | Glossary On
Versions: 1 2 3 4 5 6 7 8 9 10 11 12 13 14 15 16 17 18 19 20 21 22 23 24 25 26 27 28 29 30 31 32 33 34 35 36 37 38 39 40 41 42 43 44 45 46 47 48 49 50
000
ASUS45 KBOU 300310
RWRCO

WEATHER ROUNDUP FOR COLORADO
NATIONAL WEATHER SERVICE DENVER/BOULDER CO
900 PM MDT MON JUN 29 2015

NOTE: "FAIR" INDICATES FEW OR NO CLOUDS BELOW 12000 FEET WITH NO
SIGNIFICANT WEATHER AND/OR OBSTRUCTIONS TO VISIBILITY.

COZ001>005-013-030-031-300400-
...NORTHWEST COLORADO...

CITY           SKY/WX    TMP DP  RH WIND       PRES   REMARKS
CRAIG          PTCLDY    79  43  27 VRB3      30.21R
HAYDEN         PTCLDY    77  39  25 NE8       30.24R
MEEKER         PTCLDY    73  48  41 SE7       30.21R
MOUNT WERNER   NOT AVBL
STEAMBOAT SPGS PTCLDY    73  45  35 CALM      30.27R
WALDEN         CLEAR     63  39  42 NE6       30.40R
$$

COZ006>008-011-300400-
...WEST CENTRAL VALLEYS...

CITY           SKY/WX    TMP DP  RH WIND       PRES   REMARKS
GRAND JUNCTION CLEAR     88  39  17 NE10      30.02S
MONTROSE       PTCLDY    87  43  21 NE5       30.13R
EAGLE          CLEAR     81  43  26 SE5       30.24S
RIFLE          CLEAR     85  43  22 W5        30.11S
DELTA          PTCLDY    86  43  22 N8        30.07S
NUCLA          PTCLDY    88  32  13 CALM      30.17S
$$

COZ017>023-064>068-300400-
...SOUTHWEST COLORADO...

CITY           SKY/WX    TMP DP  RH WIND       PRES   REMARKS
DURANGO        CLOUDY    65  54  67 E8        30.24R
CORTEZ         PTCLDY    74  52  46 NE6       30.15R
PAGOSA SPRINGS CLOUDY    69  42  37 CALM      30.36R
TELLURIDE      MOCLDY    74  36  24 CALM      30.46R
WOLF CREEK PAS NOT AVBL
$$

COZ009-010-012-014-032>034-037-058>063-300400-
...CENTRAL COLORADO...

CITY           SKY/WX    TMP DP  RH WIND       PRES   REMARKS
ASPEN          PTCLDY    67  46  47 S6        30.33R
BUENA VISTA    CLOUDY    69  49  49 SE3       30.42S
COPPER MTN     MOCLDY    59  41  51 S9        30.73S
BERTHOUD PASS  FAIR      45  34  65 E16       30.79R
COTTONWOOD PAS NOT AVBL
GUNNISON       PTCLDY    70  46  43 E17       30.37S
KREMMLING      CLEAR     72  41  33 E6        30.33R
LEADVILLE      PTCLDY    60  42  51 S8        30.55R
MONARCH PASS   MOCLDY    50  43  76 E17       30.82S
SALIDA         PTCLDY    65  59  78 SW6       30.45S
SUNLIGHT       CLEAR     63  37  39 CALM      30.63F
WILKERSON PASS MOCLDY    52  37  58 NE9       30.71S
$$

COZ069>075-300400-
...SAN LUIS VALLEY/SANGRE DE CRISTO MOUNTAINS...

CITY           SKY/WX    TMP DP  RH WIND       PRES   REMARKS
ALAMOSA        PTCLDY    69  47  45 E12       30.34R
LA VETA PASS   PTCLDY    54  41  62 MISG      30.58S
SAGUACHE       PTCLDY    64  52  63 NW9       30.39R
$$

COZ035-036-038>040-300400-
...NORTHERN COLORADO FRONT RANGE...

CITY           SKY/WX    TMP DP  RH WIND       PRES   REMARKS
DENVER INTL AP PTCLDY    74  51  44 E10       30.21R
DMNS CITY PARK   N/A     76  47  36 SW1       30.20S
AURORA         PTCLDY    74  51  44 E7        30.24R
FRONT RANGE AP PTCLDY    77  50  38 E8        30.22S
ERIE MUNI ARPT CLEAR     75  51  43 CALM      30.19S
BOULDER MUN AP CLEAR     75  52  43 W3        30.20S
CENTENNIAL     PTCLDY    76  48  37 N6        30.24S
BROOMFIELD     PTCLDY    77  48  36 W7        30.24S
FORT COLLINS   CLEAR     79  54  41 S5        30.17R
LONGMONT       CLEAR     72  58  62 W3        30.21R
$$

COZ041-046-047-076>085-087-088-300400-
...PIKES PEAK/PALMER DIVIDE AND SOUTHERN FOOTHILLS...

CITY           SKY/WX    TMP DP  RH WIND       PRES   REMARKS
COLO. SPRINGS  PTCLDY    74  54  49 S5        30.29R
A. F. ACADEMY  CLEAR     67  51  57 NE2       30.31R
ELLICOTT       CLOUDY   N/A N/A N/A S8        30.28R
FALCON         CLEAR     67  52  58 SW5       30.35S
FORT CARSON    CLOUDY    73  57  57 W6        30.26R
LIMON          PTCLDY    67  61  81 CALM      30.23R
MONUMENT HILL  CLEAR     64  54  68 CALM      30.35S
TRINIDAD       MOCLDY    75  52  44 SW14      30.24R
$$

COZ042>045-048>051-090-091-300400-
...NORTHEAST COLORADO...

CITY           SKY/WX    TMP DP  RH WIND       PRES   REMARKS
GREELEY ARPT   PTCLDY    75  54  46 SE5       30.17R
AKRON          PTCLDY    74  57  55 SE5       30.16R
BURLINGTON     CLEAR     71  54  54 SW9       30.14S
WRAY           CLEAR     77  56  48 E3        30.09R
STERLING       PTCLDY    73  59  60 CALM      30.10R
HOLYOKE        CLEAR     77  55  47 E7        30.09S
FORT MORGAN    PTCLDY    73  -6   4 E6        30.15S
$$

COZ086-089-092>099-300400-
...SOUTHEAST COLORADO...

CITY           SKY/WX    TMP DP  RH WIND       PRES   REMARKS
PUEBLO         PTCLDY    80  52  37 E7        30.17R
LA JUNTA       CLEAR     74  58  57 NE8       30.13S
LAMAR          CLEAR     74  55  51 SE9       30.08R
SPRINGFIELD      N/A     71  51  49 SW3       30.16R
$$



USA.gov is the U.S. government's official web portal to all federal, state and local government web resources and services.